Regional Weather Roundup
Issued by NWS Portland, ME

Home | Current Version | Previous Version | Text Only | Print | Product List | Glossary On
Versions: 1 2 3 4 5 6 7 8 9 10 11 12 13 14 15 16 17 18 19 20 21 22 23 24 25 26 27 28 29 30 31 32 33 34 35 36 37 38 39 40 41 42 43 44 45 46 47 48 49 50
000
ASUS41 KGYX 290310
RWRGYX
WEATHER ROUNDUP FOR MAINE AND NEW HAMPSHIRE
NATIONAL WEATHER SERVICE GRAY ME
1100 PM EDT FRI APR 28 2017

MEZ002-005-006-010-012-015-018-020-021-024-026-027-029-290400-
MAINE

CITY           SKY/WX    TMP DP  RH WIND       PRES   REMARKS
PORTLAND       MOCLDY    49  46  90 VRB3      29.96R
SANFORD        CLOUDY    64  37  36 W5        29.97S
WISCASSET      FOG       50  50 100 CALM      29.96S VSB 1/4
ROCKLAND       FOG       48  48 100 CALM      29.95S VSB 1/4
FRYEBURG       PTCLDY    53  47  79 W5        29.96R
LEWISTONAUBURN PTCLDY    54  54 100 CALM      29.95
AUGUSTA        CLOUDY    54  52  93 CALM      29.94S FOG
BANGOR         FOG       51  51 100 S6        29.94S VSB 1/8
GREENVILLE       N/A     54  54 100 N3        29.92S
MILLINOCKET    FOG       53  53 100 W3        29.93F VSB 1/4
HOULTON        CLOUDY    57  57 100 S6        29.90S
PRESQUE ISLE   PTCLDY    55  54  94 SW6       29.89F
FRENCHVILLE    FOG       53  51  93 S7        29.86R VSB<1/4
CARIBOU        CLOUDY    56  54  93 SW7       29.87S
$$

NHZ002-005-008-009-011-012-014-290400-
NEW HAMPSHIRE

CITY           SKY/WX    TMP DP  RH WIND       PRES   REMARKS
PORTSMOUTH     PTCLDY    68  34  28 SW5       29.96S
ROCHESTER      PTCLDY    67  31  26 VRB3      29.96S
NASHUA         PTCLDY    63  47  55 CALM      30.00R
MANCHESTER     MOCLDY    64  42  44 S7        29.98R
CONCORD        PTCLDY    60  39  45 CALM      29.98S
LACONIA        PTCLDY    67  35  30 SW9       29.98S
PLYMOUTH       FAIR      57  46  66 CALM      29.98R
BERLIN         PTCLDY    50  41  71 N3        29.97R
WHITEFIELD     CLOUDY    54  41  61 CALM      29.98R
JAFFREY        PTCLDY    54  50  86 S6        30.03S
KEENE          PTCLDY    56  49  77 CALM      30.01S
LEBANON        CLEAR     60  41  49 CALM      29.99R
MT WASHINGTON  MOCLDY    43  36  75 W58G64      N/A
$$

VTZ005-007-008-290400-
VERMONT

CITY           SKY/WX    TMP DP  RH WIND       PRES   REMARKS
ST JOHNSBURY     N/A     58  39  49 MISG      29.97R
MONTPELIER     PTCLDY    67  29  24 SW8G20    30.02S
BURLINGTON     MOCLDY    69  31  24 SW8       29.96F
$$

MAZ007-012-024-CTZ003-RIZ002-NYZ038-NYZ072-290400-
SOUTHERN NEW ENGLAND AND NY

CITY           SKY/WX    TMP DP  RH WIND       PRES   REMARKS
BOSTON         CLOUDY    71  58  63 SW6       30.00R
WORCESTER      PTCLDY    68  52  56 SW12      30.03F
NANTUCKET      FOG       50  49  96 SW12      30.06R VSB 1/4
PROVIDENCE     PTCLDY    67  56  67 S7        30.02F
HARTFORD       PTCLDY    66  56  70 S6        30.01S
ALBANY         MOCLDY    62  50  64 CALM      30.00S
NEW YORK CITY  PTCLDY    75  45  34 SW10      30.03S
$$

ANZ081-ANZ082-ANZ150-NHZ014-MEZ023>029-290400-
COASTAL MARINE OBSERVATIONS

STATION/POSITION TIME  TEMP    WIND        PRES    WAVE
                       AIR SEA DIR/SP/G            HT/PER
                 (UTC) (F)     (DEG/KT/KT) (MB)    (FT/S)
MOUNT DESERT ROC 0300   43                 1014.4F
MATINICUS ROCK   0200   46     210/  7/  8 1014.3R
ISLE OF SHOALS   0200   73     240/  9/  9 1014.6R
JEFFREYS LEDGE   0206      45                N/A     4/ 9
CASHES LEDGE BUO 0150   48 44              1014.5    5/ 9
GEORGES BANK BUO 0150   49 42              1017.9    5/ 8
$$

.............KEY..............
   WCI - WIND CHILL
   TC  - TEMPERATURE IN CELSIUS
   VSB - VISIBILITY IN MILES
   HX  - HEAT INDEX
   FAIR- INDICATES FEW OR NO CLOUDS BELOW 12,000 FT, WITH NO
         SIGNIFICANT WEATHER AND/OR OBSTRUCTIONS TO VISIBILITY.






USA.gov is the U.S. government's official web portal to all federal, state and local government web resources and services.